Tracking 19192 objects as of 18-Jun-2018
HD Live streaming from Space Station
objects crossing your sky now

FENGYUN 1C DEB

Track FENGYUN 1C DEB now!
10-day predictions


NORAD ID: 36697
Int'l Code: 1999-025DZT
Perigee: 517.1 km
Apogee: 752.8 km
Inclination: 98.8 °
Period: 97.3 minutes
Semi major axis: 7005 km
RCS: 0.0105 m2 (small)
Launch date: May 10, 1999
Source: People's Republic of China (PRC)
Launch site: Taiyaun Space Center, China (TSC)

Note: This is SATELLITE DEBRIS
aabbcc
Your satellite tracking list
Your tracking list is empty




NASA's NSSDC Master Catalog

Two Line Element Set (TLE):
1 36697U 99025DZT 18168.80993351 +.00000587 +00000-0 +68625-4 0  9999
2 36697 098.8209 161.2667 0168218 313.1197 167.5757 14.80493350490175
Source of the keplerian elements: AFSPC